CW4740 Weather Reports


Display with metric or nautical units.
time (UTC)temp
F
wind
direction
speed
MPH
gust
MPH
rain 1hr
in
rain 24hr
in
rain mn
in
humidity
%
barometer
mb
20260506073214 77 95 1.0 6.0 0.00 0.03 0.00 85 1015.3
20260506072629 77 95 1.0 6.0 0.00 0.03 0.00 85 1015.4
20260506072243 77 95 3.0 7.0 0.00 0.03 0.00 85 1015.5
20260506071643 77 100 3.0 7.0 0.00 0.03 0.00 85 1015.4
20260506071215 78 100 4.0 7.0 0.00 0.03 0.00 85 1015.3
20260506070751 78 113 3.0 7.0 0.00 0.03 0.00 85 1015.3
20260506070204 78 90 4.0 9.0 0.00 0.03 0.00 85 1015.5
20260506062220 78 89 2.0 7.0 0.00 0.03 0.00 85 1015.8
20260506062138 78 89 2.0 7.0 0.00 0.03 0.00 85 1015.8
20260506061736 78 89 2.0 9.0 0.00 0.03 0.00 85 1015.8
20260506061131 78 95 4.0 9.0 0.00 0.03 0.00 85 1015.6
20260506060729 78 103 5.0 9.0 0.00 0.03 0.00 85 1015.7
20260506060206 78 98 4.0 9.0 0.00 0.03 0.00 84 1015.8
20260506051212 78 103 6.0 11.0 0.00 0.03 0.00 83 1016.3
20260506050707 78 107 5.0 11.0 0.00 0.03 0.00 83 1016.3
20260506050143 78 113 4.0 9.0 0.00 0.03 0.00 84 1016.3
20260506044643 78 107 3.0 8.0 0.00 0.03 0.00 83 1016.3
20260506044200 78 108 2.0 7.0 0.00 0.03 0.00 83 1016.4
20260506043736 78 108 2.0 7.0 0.00 0.03 0.00 82 1016.4
20260506043132 78 84 4.0 8.0 0.00 0.03 0.00 82 1016.6
20260506042628 78 76 3.0 8.0 0.00 0.03 0.00 83 1016.6
20260506042226 78 83 4.0 9.0 0.00 0.03 0.00 83 1016.5
20260506041721 78 119 3.0 9.0 0.00 0.03 0.00 82 1016.6
20260506041157 78 103 2.0 9.0 0.00 0.03 0.00 83 1016.7
20260506040654 78 99 4.0 8.0 0.00 0.03 0.00 83 1016.6
20260506040130 78 91 5.0 8.0 0.00 0.04 0.03 83 1016.8
20260506035635 78 52 4.0 9.0 0.00 0.04 0.03 82 1016.7
20260506035133 78 102 3.0 10.0 0.00 0.04 0.03 83 1016.8
20260506034630 78 113 5.0 11.0 0.00 0.04 0.03 83 1016.7
20260506034247 78 92 5.0 11.0 0.00 0.04 0.03 84 1016.7
20260506033640 78 91 3.0 9.0 0.00 0.04 0.03 84 1016.7
20260506033137 78 91 5.0 9.0 0.00 0.04 0.03 84 1016.7
20260506032635 78 92 3.0 9.0 0.00 0.04 0.03 84 1016.8
20260506032133 78 91 3.0 8.0 0.00 0.04 0.03 84 1016.7
20260506031631 78 93 4.0 10.0 0.00 0.04 0.03 84 1016.5
20260506031229 78 109 5.0 10.0 0.00 0.04 0.03 84 1016.4
20260506030705 78 109 4.0 11.0 0.00 0.04 0.03 83 1016.3
20260506030222 78 55 4.0 11.0 0.00 0.04 0.03 83 1016.3
20260506025708 78 117 3.0 9.0 0.00 0.04 0.03 83 1016.3
20260506025240 78 86 4.0 9.0 0.00 0.04 0.03 83 1016.3
20260506025137 78 86 4.0 9.0 0.00 0.04 0.03 83 1016.3
20260506024655 78 100 2.0 8.0 0.00 0.04 0.03 83 1016.4
20260506024211 78 94 4.0 9.0 0.00 0.04 0.03 83 1016.3
20260506024129 78 94 4.0 9.0 0.00 0.04 0.03 83 1016.3
20260506023646 78 72 5.0 9.0 0.00 0.04 0.03 83 1016.2
20260506023202 78 108 4.0 12.0 0.00 0.04 0.03 83 1016.2
20260506022639 78 93 6.0 12.0 0.00 0.04 0.03 83 1016.1
20260506022141 78 114 8.0 11.0 0.00 0.04 0.03 83 1016.1
20260506021716 78 114 6.0 12.0 0.00 0.04 0.03 84 1016.1
20260506021633 78 114 6.0 12.0 0.00 0.04 0.03 84 1016.1
20260506021150 78 80 5.0 12.0 0.00 0.04 0.03 84 1016.0
20260506020706 78 103 4.0 11.0 0.00 0.04 0.03 84 1015.9
20260506020222 78 103 4.0 11.0 0.00 0.04 0.03 84 1016.0
20260506015707 78 97 4.0 10.0 0.00 0.04 0.03 84 1016.0
20260506015143 78 112 4.0 10.0 0.00 0.04 0.03 83 1015.9
20260506014700 78 104 5.0 9.0 0.00 0.04 0.03 83 1015.8
20260506014237 78 56 4.0 10.0 0.00 0.04 0.03 83 1015.8
20260506014134 78 56 4.0 10.0 0.00 0.04 0.03 83 1015.8
20260506013632 78 77 6.0 10.0 0.00 0.04 0.03 83 1015.7
20260506013128 78 89 4.0 10.0 0.00 0.04 0.03 82 1015.5
20260506012726 78 73 5.0 10.0 0.00 0.04 0.03 82 1015.5
20260506012201 78 82 4.0 12.0 0.00 0.04 0.03 82 1015.5
20260506011738 78 78 5.0 12.0 0.00 0.04 0.03 82 1015.5
20260506011211 78 78 4.0 9.0 0.00 0.04 0.03 82 1015.4
20260506010745 78 90 4.0 9.0 0.00 0.04 0.03 82 1015.4
20260506010200 78 90 4.0 10.0 0.00 0.04 0.03 82 1015.5
20260506005701 78 90 5.0 11.0 0.00 0.04 0.03 81 1015.6
20260506005141 78 38 4.0 9.0 0.00 0.04 0.03 81 1015.6
20260506004657 78 70 3.0 11.0 0.00 0.04 0.03 81 1015.6
20260506004229 78 71 4.0 15.0 0.00 0.04 0.03 80 1015.6
20260506003704 78 80 3.0 13.0 0.00 0.04 0.03 81 1015.6
20260506003140 78 75 4.0 13.0 0.00 0.04 0.03 80 1015.5
20260506002737 78 63 4.0 11.0 0.00 0.04 0.03 81 1015.5
20260506002131 78 84 5.0 11.0 0.00 0.04 0.03 81 1015.7
20260506001628 78 65 3.0 11.0 0.00 0.04 0.03 81 1015.7
20260506001128 78 78 5.0 10.0 0.00 0.04 0.03 80 1015.7
20260506000702 78 90 4.0 13.0 0.00 0.04 0.03 81 1015.6
20260506000142 78 82 4.0 13.0 0.00 0.04 0.03 81 1015.6
20260505235629 79 75 7.0 13.0 0.00 0.04 0.03 81 1015.5
20260505235146 79 57 5.0 11.0 0.00 0.04 0.03 81 1015.3
20260505234703 79 69 5.0 13.0 0.00 0.04 0.03 80 1015.2
20260505234159 79 83 6.0 13.0 0.00 0.04 0.03 79 1015.1
20260505233655 79 86 5.0 13.0 0.00 0.04 0.03 79 1015.2
20260505233130 79 26 4.0 11.0 0.00 0.04 0.03 79 1015.1
20260505232707 79 55 4.0 11.0 0.00 0.04 0.03 79 1015.1
20260505232144 79 132 6.0 11.0 0.00 0.04 0.03 79 1015.2
20260505231742 79 33 4.0 15.0 0.00 0.04 0.03 79 1015.0
20260505231212 79 42 5.0 12.0 0.00 0.04 0.03 79 1015.1
20260505231129 79 42 5.0 12.0 0.00 0.04 0.03 79 1015.1
20260505230632 79 44 4.0 12.0 0.00 0.04 0.03 80 1015.0
20260505230203 79 27 5.0 11.0 0.00 0.04 0.03 79 1015.0
20260505225711 79 12 5.0 11.0 0.00 0.04 0.03 79 1015.1
20260505225127 79 76 5.0 11.0 0.00 0.04 0.03 80 1015.1
20260505224644 79 11 3.0 13.0 0.00 0.04 0.03 79 1015.0
20260505224200 80 21 4.0 13.0 0.00 0.04 0.03 79 1015.0
20260505223714 80 69 3.0 12.0 0.00 0.04 0.03 79 1015.0
20260505223632 80 69 3.0 12.0 0.00 0.04 0.03 79 1015.0
20260505223129 80 31 6.0 11.0 0.00 0.04 0.03 79 1014.9
20260505222706 80 5 4.0 11.0 0.00 0.04 0.03 79 1014.9
20260505222242 80 42 3.0 10.0 0.00 0.04 0.03 80 1014.8
20260505222200 80 42 3.0 10.0 0.00 0.04 0.03 80 1014.8
20260505221737 80 80 6.0 13.0 0.00 0.04 0.03 79 1014.9
20260505221634 80 80 6.0 13.0 0.00 0.04 0.03 79 1014.9
20260505221131 80 29 5.0 14.0 0.00 0.04 0.03 79 1014.9
20260505220649 80 58 7.0 14.0 0.00 0.04 0.03 79 1015.0
20260505220225 81 89 7.0 14.0 0.00 0.04 0.03 79 1014.8
20260505220143 81 89 7.0 14.0 0.00 0.04 0.03 79 1014.8
20260505215631 81 23 5.0 12.0 0.00 0.04 0.03 78 1014.9
20260505215228 81 76 6.0 13.0 0.00 0.04 0.03 77 1014.9
20260505214744 81 24 3.0 13.0 0.00 0.04 0.03 78 1014.7
20260505214138 81 71 6.0 14.0 0.00 0.04 0.03 78 1014.6
20260505213636 81 11 5.0 14.0 0.00 0.04 0.03 78 1014.6
20260505213214 81 63 5.0 13.0 0.00 0.04 0.03 78 1014.6
20260505212630 81 44 6.0 13.0 0.00 0.04 0.03 77 1014.5
20260505212147 81 71 8.0 13.0 0.00 0.04 0.03 77 1014.3
20260505211644 81 17 4.0 13.0 0.00 0.04 0.03 77 1014.2
20260505211142 81 103 4.0 13.0 0.00 0.04 0.03 77 1014.2
20260505210740 82 84 4.0 13.0 0.00 0.04 0.03 77 1014.4
20260505210134 82 112 6.0 13.0 0.00 0.04 0.03 76 1014.4
20260505205643 82 104 5.0 14.0 0.00 0.04 0.03 77 1014.5
20260505205201 82 51 5.0 14.0 0.00 0.04 0.03 76 1014.5
20260505204638 82 57 3.0 13.0 0.00 0.04 0.03 78 1014.5
20260505204136 81 46 8.0 13.0 0.00 0.04 0.03 77 1014.5
20260505203634 81 96 5.0 15.0 0.00 0.04 0.03 78 1014.5
20260505203133 81 97 7.0 15.0 0.00 0.04 0.03 78 1014.7
20260505202653 81 71 7.0 15.0 0.00 0.04 0.03 77 1014.6
20260505202130 82 89 8.0 15.0 0.00 0.04 0.03 76 1014.7
20260505201728 82 55 5.0 15.0 0.00 0.04 0.03 77 1014.7
20260505201645 82 55 5.0 15.0 0.00 0.04 0.03 77 1014.7
20260505201201 82 103 6.0 13.0 0.00 0.04 0.03 77 1014.7
20260505200636 82 34 4.0 12.0 0.00 0.04 0.03 77 1014.8
20260505200231 82 85 6.0 12.0 0.00 0.04 0.03 77 1014.9
20260505200149 82 85 6.0 12.0 0.00 0.04 0.03 77 1014.9
20260505195714 82 85 5.0 12.0 0.00 0.04 0.03 76 1014.9
20260505195129 82 105 5.0 15.0 0.00 0.04 0.03 77 1015.0
20260505194726 82 90 6.0 15.0 0.00 0.04 0.03 76 1015.0
20260505194202 82 109 4.0 12.0 0.00 0.04 0.03 77 1015.1
20260505193639 81 56 4.0 13.0 0.00 0.04 0.03 77 1015.1
20260505193217 82 76 7.0 14.0 0.00 0.04 0.03 77 1015.3
20260505192632 82 74 7.0 14.0 0.00 0.04 0.03 78 1015.3
20260505192151 81 91 6.0 14.0 0.00 0.04 0.03 78 1015.4
20260505191706 81 90 7.0 15.0 0.00 0.04 0.03 77 1015.3
20260505191142 82 95 7.0 15.0 0.00 0.04 0.03 78 1015.2
20260505190657 81 87 8.0 14.0 0.00 0.04 0.03 79 1015.3
20260505190132 81 15 6.0 15.0 0.00 0.04 0.03 78 1015.4
20260505185718 81 82 6.0 14.0 0.00 0.04 0.03 78 1015.3
20260505185636 81 82 6.0 14.0 0.00 0.04 0.03 78 1015.3
20260505185212 81 62 7.0 14.0 0.00 0.04 0.03 78 1015.5
20260505184627 81 102 5.0 12.0 0.00 0.04 0.03 79 1015.5
20260505184221 81 88 7.0 12.0 0.00 0.04 0.03 79 1015.4
20260505183654 81 101 6.0 13.0 0.00 0.04 0.03 80 1015.4
20260505183149 81 132 5.0 13.0 0.00 0.04 0.03 80 1015.4
20260505182645 81 84 5.0 14.0 0.00 0.04 0.03 80 1015.4
20260505182143 81 83 8.0 14.0 0.00 0.04 0.03 79 1015.5
20260505181700 81 86 5.0 17.0 0.00 0.04 0.03 81 1015.5
20260505181140 81 89 7.0 17.0 0.00 0.04 0.03 79 1015.5
20260505180637 82 134 6.0 13.0 0.00 0.04 0.03 80 1015.7
20260505180136 81 96 6.0 15.0 0.00 0.04 0.03 80 1015.7
20260505175705 81 83 6.0 15.0 0.00 0.04 0.03 80 1015.7
20260505175221 81 76 7.0 16.0 0.00 0.04 0.03 79 1015.9
20260505175139 81 76 7.0 16.0 0.00 0.04 0.03 79 1015.9
20260505174657 81 65 8.0 16.0 0.00 0.04 0.03 79 1015.9
20260505174134 81 35 8.0 16.0 0.00 0.04 0.03 79 1015.9
20260505173630 81 71 7.0 15.0 0.00 0.04 0.03 80 1015.9
20260505173208 81 105 7.0 15.0 0.00 0.04 0.03 79 1015.8
20260505172644 82 80 8.0 13.0 0.00 0.04 0.03 79 1015.9
20260505172142 82 127 7.0 12.0 0.00 0.04 0.03 79 1015.9
20260505171719 82 23 6.0 14.0 0.00 0.04 0.03 80 1016.1
20260505171133 82 82 4.0 14.0 0.00 0.04 0.03 80 1016.0
20260505170647 82 75 5.0 13.0 0.00 0.04 0.03 79 1016.0
20260505170224 82 336 6.0 13.0 0.00 0.04 0.03 80 1016.1
20260505165629 82 51 6.0 13.0 0.00 0.04 0.03 81 1016.0
20260505165223 82 101 6.0 15.0 0.00 0.04 0.03 80 1016.1
20260505164641 82 119 7.0 15.0 0.00 0.04 0.03 79 1016.1
20260505164235 82 90 5.0 11.0 0.00 0.04 0.03 78 1016.1
20260505164153 82 90 5.0 11.0 0.00 0.04 0.03 78 1016.1
20260505163630 82 18 7.0 12.0 0.00 0.04 0.03 77 1016.1
20260505163132 82 129 5.0 12.0 0.00 0.04 0.03 78 1016.0
20260505162725 82 86 6.0 12.0 0.00 0.04 0.03 77 1016.1
20260505162140 82 103 5.0 11.0 0.00 0.04 0.03 78 1016.1
20260505161719 82 355 4.0 9.0 0.00 0.04 0.03 78 1016.1
20260505161216 82 109 5.0 10.0 0.00 0.04 0.03 77 1016.1
20260505160751 82 138 4.0 11.0 0.00 0.04 0.03 78 1016.0
20260505160226 82 69 6.0 11.0 0.00 0.05 0.03 77 1016.1
20260505153156 82 96 7.0 13.0 0.00 0.05 0.03 77 1016.0
20260505152633 82 9 4.0 13.0 0.00 0.05 0.03 77 1016.1
20260505152130 82 123 3.0 12.0 0.00 0.05 0.03 77 1016.0
20260505151727 82 13 3.0 10.0 0.00 0.05 0.03 78 1015.8
20260505151241 81 103 4.0 10.0 0.00 0.05 0.03 79 1015.9
20260505151138 81 103 4.0 10.0 0.00 0.05 0.03 79 1015.9
20260505150654 81 55 3.0 12.0 0.00 0.05 0.03 79 1016.0
20260505150131 81 84 4.0 12.0 0.00 0.11 0.03 80 1015.9
20260505140201 80 92 4.0 15.0 0.00 0.15 0.03 82 1015.5
20260505130224 79 58 4.0 12.0 0.00 0.15 0.03 84 1015.4
20260505124644 79 57 6.0 12.0 0.00 0.15 0.03 83 1015.3
20260505124202 79 82 5.0 12.0 0.00 0.15 0.03 84 1015.2
20260505123638 78 101 4.0 12.0 0.00 0.15 0.03 83 1015.0
20260505123135 78 79 7.0 12.0 0.00 0.15 0.03 83 1014.8
20260505122733 78 73 5.0 11.0 0.00 0.15 0.03 84 1014.8
20260505122227 78 88 4.0 10.0 0.00 0.15 0.03 84 1014.9
20260505121643 78 99 5.0 10.0 0.00 0.15 0.03 84 1014.8
20260505121142 78 109 3.0 10.0 0.00 0.15 0.03 85 1014.5
20260505120659 78 90 4.0 8.0 0.00 0.15 0.03 86 1014.6
20260505120136 77 91 4.0 7.0 0.00 0.15 0.03 86 1014.7
20260505115646 77 92 3.0 6.0 0.00 0.15 0.03 87 1014.5
20260505115143 77 92 2.0 9.0 0.00 0.15 0.03 87 1014.6
20260505114641 76 92 4.0 9.0 0.00 0.15 0.03 87 1014.7
20260505114144 76 88 3.0 8.0 0.00 0.15 0.03 87 1014.5
20260505113718 76 85 4.0 8.0 0.00 0.15 0.03 88 1014.6
20260505113138 76 80 3.0 8.0 0.00 0.15 0.03 88 1014.6
20260505112712 76 81 2.0 8.0 0.00 0.15 0.03 89 1014.5
20260505112133 76 81 2.0 9.0 0.00 0.15 0.03 89 1014.3
20260505111631 75 81 3.0 9.0 0.00 0.15 0.03 89 1014.4
20260505111245 75 80 3.0 6.0 0.00 0.15 0.03 89 1014.4
20260505110638 75 81 3.0 6.0 0.00 0.15 0.03 90 1014.3
20260505110154 75 81 2.0 6.0 0.00 0.21 0.03 90 1014.2
20260505102152 75 82 3.0 10.0 0.00 0.21 0.03 90 1014.0
20260505101630 75 86 4.0 10.0 0.00 0.21 0.03 90 1013.8
20260505101208 75 87 3.0 8.0 0.00 0.21 0.03 91 1013.8
20260505100705 75 88 5.0 8.0 0.00 0.21 0.03 91 1014.0
20260505100139 74 88 3.0 6.0 0.00 0.23 0.03 91 1013.7
20260505095645 74 88 2.0 6.0 0.00 0.23 0.03 91 1013.6
20260505095142 74 88 3.0 8.0 0.00 0.23 0.03 90 1013.7
20260505094639 74 88 2.0 8.0 0.00 0.23 0.03 91 1013.5
20260505094153 74 88 2.0 8.0 0.00 0.23 0.03 91 1013.6
20260505093629 74 88 3.0 8.0 0.00 0.23 0.03 91 1013.3
20260505093146 74 88 1.0 8.0 0.00 0.23 0.03 91 1013.3
20260505092723 74 88 3.0 9.0 0.00 0.23 0.03 92 1013.3
20260505092238 74 89 2.0 8.0 0.00 0.23 0.03 92 1013.4
20260505091633 74 90 4.0 9.0 0.00 0.23 0.03 92 1013.4
20260505091131 74 90 3.0 9.0 0.00 0.23 0.03 92 1013.4
20260505090748 74 90 3.0 8.0 0.00 0.23 0.03 92 1013.4
20260505090706 74 90 3.0 8.0 0.00 0.23 0.03 92 1013.4
20260505090142 74 90 3.0 8.0 0.00 0.24 0.03 92 1013.4
20260505085729 74 91 3.0 9.0 0.00 0.24 0.03 92 1013.3
20260505085244 74 93 2.0 9.0 0.00 0.24 0.03 92 1013.1
20260505084637 74 93 3.0 8.0 0.00 0.24 0.03 92 1013.3
20260505084135 74 93 3.0 8.0 0.00 0.24 0.03 92 1013.2
20260505083653 74 94 4.0 9.0 0.01 0.24 0.03 92 1013.2
20260505083130 74 88 4.0 8.0 0.02 0.24 0.03 92 1013.3
20260505082727 74 82 5.0 10.0 0.03 0.24 0.03 93 1013.2
20260505082143 74 92 5.0 10.0 0.03 0.24 0.03 92 1013.2
20260505081739 74 87 4.0 9.0 0.03 0.24 0.03 93 1013.4
20260505081636 74 87 4.0 9.0 0.03 0.24 0.03 93 1013.4
20260505081134 74 77 4.0 10.0 0.03 0.24 0.03 93 1013.4
20260505080650 74 21 3.0 10.0 0.03 0.24 0.03 92 1013.2
20260505080146 74 74 3.0 9.0 0.03 0.26 0.03 92 1013.2
20260505075636 74 55 4.0 12.0 0.03 0.26 0.03 92 1013.4